GFSGBSN_sfc_temp_159.txt.gz
Temp
65 65 64 64 64 64 64 63 63 63 63 64 64 64 64 64 63 63 64 64 64 65 65 65 64 64 62 60 61 74 77 77 74 72 70 66 64 61 58 59 60 57 60 63 64 63 62
65 64 64 64 64 64 64 64 63 63 63 63 63 63 63 63 63 63 63 64 64 65 64 64 64 64 60 54 72 71 72 70 71 71 68 68 65 65 61 60 59 61 60 62 62 63 63
64 64 64 64 64 64 64 64 63 63 63 63 63 63 63 62 62 62 63 64 64 64 64 64 64 62 57 61 71 70 71 69 70 71 66 69 69 66 63 60 64 62 57 58 60 61 61
65 64 64 64 64 64 64 63 63 62 62 63 63 63 62 62 62 62 63 63 63 64 64 64 64 60 56 69 69 70 71 70 71 73 72 71 70 66 64 65 60 57 55 51 59 59 61
65 65 64 64 64 63 63 63 62 62 62 62 62 62 61 61 61 62 62 63 64 65 65 64 59 57 56 71 66 70 70 68 68 70 71 74 69 62 61 56 51 50 48 47 53 60 59
65 65 64 63 63 63 63 63 62 62 61 62 61 61 60 61 61 61 62 63 65 63 63 64 64 55 62 62 66 68 68 69 66 65 65 64 58 54 52 51 43 45 46 46 48 57 57
64 64 63 63 62 62 62 62 62 61 61 61 61 60 60 60 61 61 57 55 50 53 52 54 55 55 58 62 67 66 68 67 65 61 53 57 52 48 53 52 53 51 47 47 51 56 55
64 64 63 63 62 62 62 61 61 61 61 60 60 60 59 60 60 58 57 48 48 49 40 51 52 53 57 61 55 62 68 60 58 52 53 51 47 55 55 53 52 50 49 48 51 54 53
64 64 63 63 63 62 61 60 60 60 60 60 59 59 59 59 59 52 50 50 56 53 38 47 52 53 57 58 53 56 63 59 55 49 51 49 52 56 54 50 48 48 47 47 48 52 54
64 64 63 63 63 61 61 60 60 60 60 59 58 58 59 59 54 48 50 53 52 52 39 47 53 58 58 58 53 63 64 60 55 51 50 51 56 54 50 50 52 45 52 52 49 47 42
64 64 63 63 62 61 60 59 59 59 59 58 58 58 58 56 46 47 52 51 53 49 33 53 54 65 59 55 58 59 65 61 52 52 53 49 50 50 50 53 53 48 53 50 49 45 44
64 64 63 63 61 61 60 59 59 59 58 58 57 57 57 51 47 50 52 52 51 41 33 48 55 52 51 55 57 60 60 64 62 54 53 53 58 55 54 58 56 55 52 49 46 44 37
63 64 63 62 61 60 59 59 58 58 58 57 56 56 54 54 45 53 51 49 39 33 50 45 44 48 47 48 52 54 52 50 48 43 44 51 52 57 59 52 55 53 47 36 35 35 36
63 63 63 61 60 60 59 58 58 58 57 56 56 53 52 54 51 50 48 43 31 42 41 46 43 46 44 45 45 44 47 44 50 48 43 40 39 52 57 56 49 48 48 36 31 32 37
62 62 61 61 60 60 59 58 58 57 56 56 53 46 47 50 51 49 44 32 34 35 39 37 40 36 38 39 38 40 39 42 43 46 39 40 40 54 56 60 57 47 42 51 40 37 35
61 62 60 59 59 59 58 58 57 57 56 53 43 43 46 50 49 46 39 36 36 40 40 39 31 34 29 31 34 35 36 43 43 46 48 41 34 49 54 57 56 52 54 39 40 31 31
61 60 59 59 58 57 57 57 57 56 54 52 41 36 47 48 49 40 29 31 36 42 41 35 32 31 32 30 33 33 35 41 42 42 46 45 39 40 48 48 46 46 45 46 44 42 37
60 59 58 57 56 55 55 56 56 55 53 47 36 32 47 48 32 29 27 33 41 38 40 37 36 34 32 33 30 31 32 39 43 42 37 43 39 31 40 50 52 52 49 48 36 36 38
59 57 56 55 54 53 54 56 56 54 52 40 34 34 43 41 19 19 30 34 36 34 35 35 34 37 37 32 27 32 34 41 42 40 38 41 34 27 33 43 45 38 39 41 44 42 39
56 55 55 54 53 53 54 55 55 54 51 39 32 27 31 34 34 29 26 26 29 37 34 36 35 36 33 30 34 30 31 37 41 40 46 44 34 31 26 31 33 31 33 34 36 35 38
55 55 55 54 53 53 54 55 56 54 52 40 33 26 32 24 27 28 28 27 24 25 34 35 31 33 31 26 27 28 33 35 38 42 38 38 29 33 36 39 34 33 34 32 31 36 31
56 56 55 54 54 54 55 55 56 54 50 35 27 24 29 20 22 25 27 20 24 28 30 28 29 32 32 27 29 26 31 31 30 35 33 35 27 33 30 37 39 35 36 36 34 37 38
56 56 55 55 54 54 55 56 55 53 47 33 31 33 28 25 23 21 23 26 27 30 32 34 32 30 29 31 37 38 37 36 35 32 31 31 30 27 24 33 32 27 35 38 39 42 43
56 55 55 55 55 55 56 56 56 53 48 36 33 32 26 18 22 25 29 29 28 30 28 33 34 30 35 43 42 37 35 34 34 33 36 30 29 29 25 28 17 34 40 42 40 40 44
55 55 55 55 55 56 56 56 56 53 49 38 36 34 30 24 26 27 27 27 30 31 29 31 34 39 43 35 28 23 25 26 29 32 32 34 30 26 22 23 28 35 39 40 38 39 45
55 55 56 57 56 56 56 56 56 55 51 39 37 37 35 28 24 32 28 29 25 23 27 31 38 42 40 31 27 20 17 21 24 27 34 33 32 27 21 18 19 34 41 44 43 33 45
55 55 56 56 55 56 56 56 56 55 53 40 38 40 38 31 34 33 29 27 31 27 23 29 31 35 39 29 24 20 20 30 23 24 26 26 26 24 23 21 27 37 40 44 30 34 45
53 53 54 54 56 56 56 56 56 55 55 43 39 42 39 33 36 36 37 32 31 32 26 30 29 31 30 26 26 25 25 27 26 29 28 28 25 24 24 22 20 40 40 35 41 43 46
54 52 52 51 53 54 56 56 56 55 55 50 37 42 43 36 34 40 41 43 41 39 34 32 31 31 33 28 29 29 27 27 28 23 31 26 30 26 29 30 39 40 42 44 44 44 45

GFSGBSN_sfc_temp_162.txt.gz
Temp
65 65 64 64 65 65 64 64 64 63 64 64 64 64 64 64 64 64 64 64 65 65 65 65 65 65 69 70 74 83 78 79 82 81 79 77 74 72 67 69 69 66 70 71 72 72 72
65 64 64 64 64 64 64 64 64 63 63 63 64 64 64 63 63 63 63 64 65 65 64 65 65 65 69 64 81 82 81 81 81 80 79 78 76 76 71 69 68 70 69 70 71 72 73
65 65 64 64 64 64 64 64 63 63 63 63 63 63 63 63 63 63 63 64 64 64 64 65 65 67 66 71 81 82 79 80 79 80 75 80 78 74 73 67 73 70 64 70 71 72 70
65 65 65 65 64 64 64 63 63 62 62 63 63 63 62 62 62 62 63 63 63 64 64 64 64 68 68 77 81 77 79 76 79 81 78 80 79 74 71 72 68 65 65 60 68 68 69
66 65 65 65 64 63 63 63 63 62 62 62 62 62 62 62 62 62 63 63 64 65 65 65 68 67 68 76 74 77 80 75 76 78 79 79 76 71 68 63 62 63 58 60 63 69 68
66 66 65 65 63 63 63 63 62 62 61 62 61 61 61 61 61 62 62 62 65 66 68 70 70 63 72 68 72 74 77 77 73 73 71 70 70 64 64 62 53 59 57 61 60 65 65
65 65 64 64 63 63 63 62 62 61 61 61 61 60 60 60 61 61 67 73 69 68 66 66 65 64 68 71 74 73 76 74 73 70 62 67 60 56 62 64 64 63 59 58 64 65 61
65 65 64 63 63 62 62 62 61 61 61 60 60 60 59 60 60 59 68 60 55 56 54 60 60 60 64 66 62 71 76 68 66 61 66 59 55 65 67 63 60 60 57 58 63 65 62
65 65 64 64 63 63 62 61 61 61 60 60 60 59 59 59 59 63 61 56 62 60 50 58 60 60 62 64 61 64 69 68 64 61 60 59 63 65 61 58 56 58 55 57 58 62 64
65 65 64 64 63 63 62 61 60 60 60 59 59 58 59 58 61 61 59 61 61 61 53 58 59 62 63 63 59 69 71 67 62 58 61 59 66 60 57 56 59 53 63 59 56 54 50
65 65 64 63 63 63 61 60 60 60 59 58 58 58 58 56 61 61 59 62 61 57 45 59 59 70 66 61 64 64 71 66 59 59 59 57 57 58 55 58 61 57 61 57 56 54 55
65 64 64 63 63 62 61 60 59 59 59 58 58 57 57 60 63 60 62 61 59 51 42 54 59 56 58 62 63 66 65 68 68 60 61 60 68 63 62 64 63 62 57 55 54 53 44
65 64 63 63 62 61 60 60 59 59 59 58 57 56 58 61 57 61 61 60 51 44 58 48 47 51 54 53 56 57 57 59 56 51 53 60 59 64 65 58 62 58 51 42 39 40 43
64 63 63 62 62 61 60 60 59 59 58 57 56 54 57 60 61 61 61 56 41 47 45 49 47 51 49 48 51 51 53 53 56 52 50 48 47 60 64 60 57 54 54 41 32 38 42
65 63 62 61 61 60 60 59 59 58 57 56 54 61 60 60 60 60 58 45 42 40 42 41 48 45 47 45 46 48 49 48 48 49 41 45 48 64 63 65 63 56 49 58 45 45 41
64 63 62 61 60 60 59 59 58 57 56 54 57 57 56 59 59 59 53 44 41 44 44 44 38 41 39 41 39 43 44 48 44 46 50 47 38 54 58 62 62 60 62 44 42 33 32
64 63 62 60 59 58 57 58 57 55 55 52 52 50 55 58 60 55 42 42 41 45 46 41 38 37 39 37 39 39 40 47 46 46 49 43 40 45 52 52 53 52 48 53 51 46 42
64 63 61 59 57 56 56 55 53 53 53 51 45 43 54 55 46 40 41 42 43 42 45 41 41 39 37 38 36 37 37 43 50 47 40 44 35 35 43 55 56 51 45 52 44 43 48
64 62 60 57 56 54 53 52 53 53 52 47 40 39 51 50 34 35 39 39 41 39 39 39 37 40 41 36 31 37 39 46 46 44 41 45 39 30 39 50 48 36 37 39 38 44 45
64 61 58 56 54 53 52 52 52 53 52 46 38 34 41 43 42 41 36 35 34 40 39 40 39 41 38 36 40 33 37 42 44 44 46 45 38 32 30 37 35 32 33 33 34 34 43
58 57 56 54 53 52 52 52 53 54 52 48 42 35 40 33 37 41 40 36 33 32 39 41 37 37 35 28 33 34 35 39 43 45 44 41 32 38 40 41 40 37 38 37 31 33 31
56 56 55 54 53 53 52 52 53 54 52 44 36 34 40 35 37 34 34 32 33 34 36 34 34 37 38 31 33 29 35 36 35 42 40 42 31 36 33 40 41 37 41 43 40 34 36
57 56 56 55 54 53 53 53 54 53 51 42 39 41 44 34 35 35 36 35 35 38 38 41 38 36 34 38 42 43 43 42 39 35 36 35 32 31 27 38 38 32 40 42 43 46 39
58 57 56 56 54 54 52 52 53 53 52 46 43 44 37 30 34 35 37 38 37 38 36 40 41 36 41 48 46 44 42 40 40 39 41 33 32 31 26 34 20 40 50 46 44 47 42
58 58 56 56 55 53 52 53 55 54 51 48 46 43 37 31 37 36 36 35 38 40 37 38 42 46 49 41 30 28 33 30 35 39 39 40 34 26 23 27 35 40 45 44 41 43 50
52 54 55 55 54 53 53 54 56 55 52 50 47 48 42 34 33 43 38 38 35 35 35 37 45 49 45 34 30 23 24 30 29 34 40 38 36 28 28 21 20 41 49 50 48 36 50
54 54 55 55 55 55 55 55 56 55 52 51 48 50 43 33 42 42 36 36 40 37 35 38 39 39 43 30 26 26 28 35 27 30 31 30 27 24 27 24 33 47 49 49 35 38 50
54 54 53 53 55 55 54 55 55 55 53 51 48 50 46 35 42 43 45 40 39 39 32 40 36 36 32 27 29 31 29 34 33 37 35 31 26 25 27 25 25 51 46 41 49 51 52
53 53 53 53 53 53 54 55 55 56 54 52 45 49 52 41 42 48 49 51 49 48 42 40 36 36 38 31 34 33 31 34 34 29 42 31 36 33 30 35 48 48 50 53 54 53 52

GFSGBSN_sfc_temp_168.txt.gz
Temp
66 66 65 65 65 65 65 65 64 64 64 64 64 64 64 64 64 64 64 64 65 66 65 65 65 65 66 70 75 83 77 78 80 80 79 78 73 71 65 70 72 68 71 74 75 74 72
66 66 65 65 65 65 65 65 64 64 63 64 64 64 64 64 63 63 63 64 64 65 64 64 66 65 66 64 87 89 86 81 83 79 79 79 76 78 72 70 67 72 71 71 72 72 73
66 66 66 65 65 65 65 65 64 64 63 63 64 64 64 63 62 62 63 63 64 64 64 65 66 68 69 70 87 87 85 84 84 82 77 82 82 75 74 67 74 72 64 67 69 71 70
67 66 66 66 65 65 65 64 64 63 63 63 63 63 63 62 62 62 63 63 63 63 65 65 65 70 67 84 86 84 86 83 85 85 82 82 82 75 71 74 70 64 63 54 68 71 70
67 67 66 66 66 66 65 64 64 63 63 63 63 62 62 61 61 62 62 63 64 65 66 65 66 69 67 77 78 83 83 79 81 81 81 83 78 69 69 60 56 60 51 57 62 71 69
67 67 66 66 66 65 65 64 64 63 63 62 62 61 61 60 61 61 61 63 68 66 66 73 74 65 73 72 77 78 82 81 77 76 73 71 67 61 60 56 45 53 55 59 58 67 66
67 67 66 65 65 65 65 64 64 63 62 62 61 61 60 60 61 60 62 76 70 66 71 67 68 68 71 76 80 77 82 77 76 71 59 66 57 52 58 61 62 61 58 56 61 68 64
67 66 66 65 65 64 64 64 63 63 62 61 61 60 60 60 59 59 69 65 59 60 51 68 71 69 73 72 65 75 82 68 66 58 64 60 53 62 66 65 62 60 56 55 61 66 64
66 66 66 65 65 64 64 63 63 63 62 61 60 60 59 59 59 64 67 62 69 67 53 65 69 68 68 70 67 69 74 69 63 60 61 56 61 69 64 60 57 57 55 54 54 60 62
66 66 66 66 65 64 64 63 62 62 61 61 60 59 59 59 59 69 65 69 69 67 49 58 62 66 70 69 63 74 75 68 65 58 61 59 66 63 61 58 60 51 62 60 57 53 45
66 66 66 65 65 64 63 63 62 62 61 60 59 58 58 58 62 64 65 69 68 62 39 63 62 75 73 66 66 67 75 68 58 60 60 56 60 57 56 59 63 57 62 59 57 52 50
65 65 65 65 65 64 63 62 62 61 60 59 59 58 58 64 64 68 69 68 63 47 40 55 62 59 62 64 63 66 67 70 68 60 61 59 67 64 62 65 64 64 59 56 54 48 38
64 64 64 64 64 64 63 62 62 61 60 59 58 57 57 66 62 68 68 62 47 41 63 51 52 56 57 55 57 59 56 56 53 46 49 56 59 64 66 58 63 59 51 36 36 34 35
64 64 64 64 63 64 63 62 62 61 60 59 57 57 61 68 67 66 63 53 39 53 50 54 53 54 51 53 54 53 52 51 54 49 45 43 42 58 56 53 50 51 52 39 28 31 35
63 63 63 63 63 63 63 62 61 60 59 57 56 60 62 66 64 63 54 41 46 48 50 47 53 50 51 52 50 49 49 48 48 48 38 38 41 55 55 57 55 49 44 53 43 45 37
63 63 63 64 63 63 63 62 61 59 57 55 52 55 56 63 63 55 47 44 49 50 51 51 43 49 42 45 43 44 44 51 47 51 50 43 32 48 51 53 54 51 56 41 41 30 27
62 63 63 63 62 62 62 61 60 58 56 55 50 46 55 60 59 50 40 46 47 51 52 47 44 42 43 41 43 41 42 48 51 48 48 44 38 37 44 42 42 43 42 44 38 39 31
62 62 63 63 62 61 61 61 58 56 55 51 44 36 51 57 41 48 42 48 48 47 50 46 47 44 41 41 39 39 39 44 50 48 39 44 36 29 35 46 49 46 42 38 30 31 33
61 62 62 62 61 61 60 58 56 55 55 45 38 39 50 51 32 37 45 44 48 45 46 44 43 45 45 39 34 40 41 49 49 44 40 42 34 22 28 38 46 39 38 36 33 34 29
59 60 62 62 61 59 57 56 55 55 53 45 37 32 38 41 47 44 40 41 39 47 46 47 45 45 41 38 42 37 39 45 48 45 47 44 34 28 20 27 34 30 34 36 35 26 27
58 58 58 60 58 57 55 54 53 53 52 44 39 35 44 32 40 44 47 44 40 36 45 46 41 41 40 31 35 35 40 42 46 48 45 41 30 33 35 38 37 35 36 37 32 34 28
57 57 57 56 54 54 53 52 51 50 49 42 34 34 40 39 43 39 40 39 40 41 41 39 39 43 43 35 37 32 38 38 36 42 39 41 28 33 29 36 36 34 38 39 39 38 36
58 58 56 56 55 54 53 52 51 50 47 39 41 42 40 36 37 36 38 40 42 45 45 47 44 42 39 41 45 45 44 42 40 36 35 34 30 27 21 32 32 25 34 37 39 42 41
58 58 57 57 56 55 54 53 52 50 48 44 41 41 35 30 37 38 44 45 43 45 41 45 46 41 46 51 49 46 43 42 41 40 41 32 30 29 21 26 13 32 43 43 40 43 45
57 57 57 56 56 55 55 53 52 50 50 44 44 40 36 32 39 41 44 44 45 47 44 44 47 49 51 45 30 27 31 33 36 40 40 40 33 23 19 20 28 34 40 39 38 36 47
56 56 57 56 57 56 55 53 52 50 49 45 43 44 44 34 36 47 44 44 39 39 40 43 50 51 47 35 28 17 21 28 28 35 44 35 37 28 22 18 16 34 44 47 46 32 49
56 56 55 55 55 54 54 53 52 51 50 46 46 50 46 35 45 48 41 40 47 43 37 43 43 42 45 30 25 24 25 36 26 28 29 28 28 23 23 22 27 41 46 47 28 32 50
55 55 54 53 53 54 54 53 53 53 51 46 44 50 46 37 44 50 50 45 45 43 34 43 38 38 33 25 26 29 28 32 30 35 32 29 23 22 26 21 21 43 42 31 39 46 48
54 54 54 54 54 52 51 52 53 53 52 51 45 52 52 41 43 52 54 56 54 52 44 42 39 38 38 31 33 33 30 33 31 24 39 26 31 28 28 30 43 47 42 46 48 48 48

GFSGBSN_sfc_temp_171.txt.gz
Temp
66 66 66 65 65 65 65 65 65 64 64 64 64 64 64 64 64 64 64 64 65 65 65 65 65 65 62 59 64 78 77 77 75 75 72 69 65 62 58 61 62 59 63 68 69 68 67
66 66 66 66 65 65 65 65 65 64 64 64 64 64 64 64 63 63 63 64 64 65 64 65 66 65 58 56 79 77 78 75 77 73 71 70 68 69 63 61 59 64 64 64 67 67 66
67 66 66 66 66 65 65 65 64 64 64 64 64 64 63 63 62 63 63 63 64 64 64 65 66 65 60 63 78 77 80 76 77 75 70 73 73 65 65 60 67 65 58 60 63 64 63
67 67 67 66 66 66 65 65 64 63 63 63 63 63 63 62 62 62 63 63 63 63 64 65 65 61 56 78 73 78 78 77 79 78 75 75 74 68 63 65 62 57 53 46 60 63 65
67 67 67 67 66 66 65 65 64 63 63 63 63 62 62 62 62 62 62 62 64 65 65 66 59 56 57 76 73 76 75 73 75 75 74 81 72 61 62 52 47 49 41 48 54 64 64
67 67 67 66 66 66 65 65 64 63 63 63 62 61 61 61 61 62 62 63 66 65 64 69 69 57 65 67 71 74 74 75 70 70 67 65 59 52 50 46 38 42 43 50 49 60 61
67 67 66 66 65 65 65 65 64 63 62 62 62 61 60 60 61 61 59 61 55 57 58 56 59 60 66 69 73 70 75 71 68 62 52 58 48 44 49 51 53 52 50 49 54 61 57
66 66 66 66 65 65 65 65 64 63 63 62 61 61 60 60 60 59 59 55 54 54 45 60 62 65 69 67 61 68 73 62 60 52 55 51 45 54 58 58 55 53 49 47 53 60 58
66 66 66 66 66 65 65 64 63 63 62 62 61 60 60 60 59 59 58 57 61 59 43 56 65 65 65 65 62 63 68 62 56 51 52 47 53 62 58 55 53 52 48 49 49 54 54
65 66 66 65 65 65 65 64 63 62 62 61 60 59 59 59 56 57 57 62 61 59 39 52 58 63 66 65 58 70 69 63 57 52 53 51 59 58 57 53 55 46 56 55 53 47 39
65 65 65 65 65 65 64 63 63 62 61 60 60 59 59 58 50 54 59 60 59 52 31 57 59 70 67 60 60 62 69 62 53 54 52 48 53 53 52 54 58 51 57 54 53 46 41
65 65 65 64 64 64 63 63 62 62 61 60 59 58 58 57 52 58 60 60 54 41 32 51 59 56 56 58 58 61 60 63 62 54 54 52 60 57 55 60 60 60 55 51 48 43 34
64 64 64 63 63 63 63 63 63 62 61 60 59 58 56 61 52 59 58 51 38 32 55 46 49 53 50 49 52 53 51 45 41 39 38 47 51 56 57 50 54 50 44 33 31 30 33
64 63 63 63 63 63 63 63 63 62 61 59 58 57 57 60 58 60 56 46 33 46 45 52 51 50 46 47 47 49 46 41 45 42 37 33 34 46 52 47 43 44 46 35 27 25 31
63 63 63 63 63 63 63 63 63 62 61 58 56 54 55 59 62 59 49 37 39 44 49 46 48 44 43 45 44 43 42 42 43 42 35 33 34 48 49 50 49 44 37 45 37 37 32
62 62 62 62 63 63 63 63 63 62 59 55 51 52 53 60 60 53 43 41 47 49 50 49 40 44 38 39 39 37 37 45 44 45 44 39 28 43 45 49 50 43 46 34 35 26 25
62 62 62 62 63 62 62 62 63 61 56 56 48 42 52 57 57 45 35 40 47 50 50 44 42 42 38 36 38 37 40 44 45 43 44 39 34 33 39 37 35 37 35 38 36 33 25
62 62 61 61 62 61 61 61 62 58 55 53 45 35 50 53 38 38 34 44 49 46 48 45 45 43 39 39 36 35 37 41 46 44 37 41 31 23 29 39 44 42 36 34 24 26 29
61 61 61 61 61 60 60 61 60 55 55 46 39 39 48 48 31 32 42 44 47 44 45 44 41 45 44 38 32 37 39 46 45 43 38 39 27 14 23 31 37 31 35 37 34 30 27
60 60 59 59 59 60 59 59 55 55 55 45 38 32 35 37 38 35 35 38 38 46 45 46 44 45 40 37 40 35 37 44 45 44 47 42 28 20 15 22 27 25 30 33 32 25 24
59 59 58 58 57 56 56 56 54 53 50 45 40 35 38 29 31 34 41 41 36 35 43 44 40 41 38 27 31 33 37 38 40 44 39 36 23 27 30 33 33 31 31 32 27 30 25
58 58 57 57 56 55 54 53 53 50 50 42 35 34 35 34 37 33 36 36 38 37 39 38 37 41 40 31 33 30 34 30 29 34 32 34 23 28 24 32 32 29 32 33 33 33 32
58 59 57 56 55 55 54 54 53 53 50 39 39 40 37 34 33 31 32 35 38 41 42 45 43 39 37 39 40 38 37 35 34 31 29 27 25 20 17 27 27 20 30 32 34 37 35
57 58 57 57 56 55 55 54 54 52 50 42 40 38 33 30 32 33 36 35 38 42 40 44 44 38 42 46 43 39 37 35 35 35 35 26 23 26 17 21 9 28 38 39 36 38 40
57 57 57 56 56 55 55 55 54 53 49 43 43 39 34 30 34 33 34 36 42 44 41 42 43 43 45 39 21 18 23 26 31 34 33 34 26 21 16 15 24 30 36 37 35 34 42
56 56 56 56 56 56 56 55 54 51 48 43 42 43 39 32 31 40 37 41 35 33 36 40 43 44 41 26 18 8 13 21 23 29 36 32 33 25 21 17 14 31 40 45 41 28 39
55 56 56 55 54 55 56 56 54 50 49 44 42 44 40 32 40 41 36 38 41 36 30 35 37 36 38 19 12 14 17 29 20 22 23 20 18 15 20 20 24 36 41 44 25 28 41
55 55 55 55 55 53 54 54 53 51 51 45 43 45 40 33 39 46 48 41 40 36 27 35 30 29 22 15 17 21 21 25 24 27 25 22 15 12 14 14 18 41 41 34 39 43 44
54 54 55 54 54 53 52 50 51 52 51 48 40 47 48 38 38 48 49 50 50 47 38 35 33 32 30 21 22 24 23 24 24 18 29 20 26 21 24 27 39 41 40 46 44 45 45

GFSGBSN_sfc_temp_174.txt.gz
Temp
67 66 66 66 66 66 65 65 65 64 64 64 64 64 64 64 64 64 64 65 65 66 65 65 65 65 61 57 63 76 77 77 73 72 70 67 62 60 55 57 58 55 59 64 66 65 64
67 67 66 66 66 66 65 65 65 64 64 64 64 64 64 64 63 64 64 64 65 65 64 65 65 64 56 54 74 76 75 72 73 70 68 66 64 65 60 59 57 60 61 61 63 64 63
67 67 67 66 66 66 66 65 65 64 64 64 64 64 64 63 63 63 63 64 64 64 64 64 65 64 57 62 74 72 75 73 74 72 67 70 69 63 61 58 63 62 55 58 60 61 61
67 67 67 66 66 66 66 65 64 64 63 64 64 64 63 62 62 62 63 63 63 64 64 64 64 59 55 73 71 75 75 73 75 74 72 72 71 65 61 62 59 54 50 44 57 60 63
67 67 67 67 66 66 66 65 64 64 63 63 63 63 62 62 62 62 62 62 64 66 65 65 58 55 56 75 70 73 71 70 72 72 72 79 69 60 60 50 45 46 40 44 51 60 59
67 67 67 66 66 66 66 65 65 64 63 63 63 62 61 61 61 61 61 63 65 65 64 67 66 53 63 63 69 72 70 72 68 67 65 62 56 50 48 45 36 40 41 45 45 55 58
67 66 66 66 66 66 66 65 65 64 63 62 62 61 61 61 61 61 58 58 54 55 56 54 57 56 61 68 69 67 71 68 66 59 51 55 47 42 48 49 50 48 45 44 50 57 53
66 66 66 65 65 65 65 65 64 64 63 62 62 61 60 60 60 59 57 52 52 53 44 57 58 59 64 65 59 65 70 60 57 50 52 48 42 52 54 53 50 48 45 44 50 56 54
66 66 66 65 65 65 65 64 64 63 63 62 62 61 60 60 59 57 55 55 59 57 41 52 60 62 63 64 59 61 65 59 53 49 49 44 50 58 54 51 49 49 44 46 47 52 51
65 65 65 65 65 65 64 64 64 63 62 62 61 60 60 59 57 53 54 59 58 57 38 49 56 61 64 63 56 68 66 61 54 49 50 48 56 54 52 49 51 44 53 52 50 45 39
66 65 65 64 64 64 63 63 63 63 62 61 60 59 59 58 50 52 57 57 56 52 31 54 56 68 62 57 57 60 66 60 51 51 49 47 51 50 48 50 53 48 55 52 50 43 38
65 65 65 64 63 63 63 62 62 62 61 60 60 59 58 55 50 55 57 56 53 40 31 49 56 53 53 56 55 58 56 58 56 51 49 48 56 53 50 54 53 55 52 50 48 42 32
65 64 64 63 63 63 62 62 62 63 62 60 59 59 57 59 51 56 55 50 38 31 52 45 47 50 48 47 49 50 45 42 40 37 36 43 46 50 53 46 51 49 44 32 31 31 31
64 64 63 62 62 62 62 62 62 62 62 60 58 58 58 60 55 57 53 47 34 44 43 50 49 47 44 45 44 46 42 37 43 40 34 31 33 42 49 45 39 42 42 32 24 25 27
62 62 62 62 62 62 62 62 62 62 61 59 56 53 54 55 60 58 49 36 36 41 48 46 46 41 39 44 42 40 38 38 40 40 33 30 32 44 46 47 47 39 33 42 32 36 29
60 61 61 62 62 62 62 62 62 62 61 56 51 50 51 60 60 54 40 39 44 48 50 48 41 44 35 37 36 37 37 41 39 42 41 34 27 39 43 49 46 40 42 31 33 21 22
61 62 62 61 61 61 61 61 62 62 59 57 49 42 52 55 57 46 34 40 48 51 51 46 43 41 39 38 39 38 38 41 43 42 42 37 31 30 37 34 33 35 33 36 32 28 22
62 61 61 61 60 59 60 62 62 61 56 54 45 39 49 53 39 38 36 44 50 46 49 45 45 42 40 39 37 37 37 40 45 43 35 37 28 20 26 38 41 37 32 31 22 19 23
61 61 60 60 59 58 59 61 61 57 56 48 40 39 48 47 31 32 39 42 47 43 43 42 41 43 43 37 33 38 39 44 44 41 36 38 27 14 22 29 33 28 31 33 30 25 18
61 60 59 59 58 57 58 59 57 56 55 46 39 33 36 39 38 36 37 35 37 43 41 43 42 42 39 37 39 35 37 42 44 43 48 42 29 21 15 22 25 19 24 28 27 19 15
60 59 59 58 57 57 56 57 55 52 52 47 40 35 38 29 31 34 35 35 32 31 42 43 38 40 37 31 34 34 37 38 41 44 39 35 24 25 27 30 30 28 28 29 22 25 19
58 59 58 57 56 56 55 54 53 53 52 42 35 34 35 33 33 32 33 32 33 35 38 36 35 38 39 31 35 31 35 34 32 35 32 32 23 25 22 29 29 26 29 30 29 29 28
58 58 59 57 56 56 55 54 53 53 50 40 40 40 38 35 33 29 29 34 35 38 37 40 36 39 37 39 41 39 39 37 35 31 28 27 24 19 13 24 25 18 26 29 30 33 32
57 57 57 57 57 56 55 55 54 54 49 42 40 38 34 31 31 30 35 37 36 36 34 37 43 38 41 45 42 38 35 34 34 32 34 25 22 21 12 20 8 25 35 36 34 36 37
57 57 57 57 56 56 56 55 55 55 50 42 43 40 36 31 34 34 36 35 36 35 37 41 43 44 44 37 24 21 24 27 31 32 29 30 25 10 13 13 21 30 34 35 31 31 37
56 56 56 56 55 55 55 56 56 55 52 44 43 44 39 32 31 39 35 36 32 33 36 38 42 43 40 27 18 12 15 21 22 26 31 29 28 19 19 13 13 27 36 42 40 26 39
54 55 56 56 55 54 54 54 56 55 50 44 42 45 40 32 35 38 33 33 39 37 31 36 37 37 37 18 12 14 17 26 20 21 21 20 17 19 21 14 21 33 40 42 24 27 39
54 54 55 55 55 54 53 52 52 51 50 45 42 44 40 33 35 40 42 39 38 37 29 36 32 30 22 14 15 21 21 24 23 25 25 21 8 13 15 12 16 40 38 30 36 42 41
53 54 54 55 55 54 53 52 51 50 50 47 40 46 45 37 36 47 47 49 47 47 37 35 32 31 29 20 21 24 24 23 24 18 26 18 23 17 21 22 37 37 37 42 42 41 44